Zell am See, Austria 16 day weather forecast

Slopes altitude range 755 m - 2000m

Number of lifts: 24 Pistes: 77km

In some cases the lift and piste totals shown are for the ski domain (e.g. Three Valleys) rather than individual resort (e.g. Courchevel)

Overview

The 16 day weather forecast is fully updated 4 times every day.

    • Mon 22 APR 2019
    • Mon 22
    • 6C 17C
    • Tue 23 APR 2019
    • Tue 23
    • 5C 12C
    • Wed 24 APR 2019
    • Wed 24
    • 6C 15C
    • Thu 25 APR 2019
    • Thu 25
    • 8C 16C
    • Fri 26 APR 2019
    • Fri 26
    • 7C 14C
    • Sat 27 APR 2019
    • Sat 27
    • -2C 3C
    • Sun 28 APR 2019
    • Sun 28
    • 2C 8C
    • Mon 29 APR 2019
    • Mon 29
    • 5C 13C
    • Tue 30 APR 2019
    • Tue 30
    • 7C 9C
    • Wed 01 MAY 2019
    • Wed 01
    • 6C 12C
    • Thu 02 MAY 2019
    • Thu 02
    • 1C 15C
    • Fri 03 MAY 2019
    • Fri 03
    • 2C 19C
    • Sat 04 MAY 2019
    • Sat 04
    • 5C 22C
    • Sun 05 MAY 2019
    • Sun 05
    • 9C 26C
    • Mon 06 MAY 2019
    • Mon 06
    • 8C 13C
    • Tue 07 MAY 2019
    • Tue 07
    • 5C 10C

Date:

Time Type 0°C level Temp Chill Snow Cloud Speed Gust Dir Press
3:00 3104m 3°C 3_5 0cm 99% 5mph 6mph 1016mB
6:00 3159m 2°C 2_5 0cm 98% 5mph 7mph 1014mB
9:00 3142m 6°C 6_4 0cm 96% 4mph 5mph 1011mB
12:00 3068m 17°C 17_4 0cm 97% 4mph 4mph 1008mB
15:00 3138m 17°C 17_3 0cm 71% 3mph 5mph 1006mB
18:00 3120m 17°C 17_5 0cm 36% 5mph 6mph 1006mB
21:00 3312m 4°C 4_7 0cm 35% 7mph 12mph 1007mB
0:00 3338m 2°C 2_7 0cm 67% 7mph 14mph 1006mB
3:00 3076m 2°C 2_7 0cm 99% 7mph 14mph 1005mB
6:00 3019m 2°C 2_8 0cm 99% 8mph 13mph 1004mB
9:00 2873m 5°C 5_7 0cm 100% 7mph 11mph 1002mB
12:00 2728m 12°C 12_8 0cm 100% 8mph 13mph 1002mB
15:00 2818m 12°C 12_8 0cm 100% 8mph 13mph 1002mB
18:00 2976m 12°C 12_7 0cm 100% 7mph 13mph 1003mB
21:00 3065m 4°C 4_6 0cm 100% 6mph 12mph 1005mB
0:00 3089m 4°C 4_7 0cm 100% 7mph 13mph 1006mB
3:00 3102m 3°C 3_6 0cm 100% 6mph 10mph 1007mB
6:00 3093m 3°C 3_7 0cm 99% 7mph 11mph 1008mB
9:00 3059m 6°C 6_7 0cm 28% 7mph 11mph 1009mB
12:00 3046m 15°C 15_8 0cm 52% 8mph 12mph 1008mB
15:00 3439m 15°C 15_8 0cm 96% 8mph 12mph 1008mB
18:00 3691m 15°C 15_7 0cm 98% 7mph 13mph 1009mB
21:00 3391m 6°C 6_5 0cm 100% 5mph 9mph 1014mB
0:00 2749m 4°C 4_3 0cm 100% 3mph 5mph 1017mB
3:00 2944m 3°C 3_5 0cm 100% 5mph 9mph 1017mB
6:00 3546m 3°C 3_8 0cm 82% 8mph 14mph 1016mB
9:00 3429m 8°C 8_8 0cm 28% 8mph 13mph 1015mB
12:00 3191m 16°C 16_8 0cm 24% 8mph 12mph 1013mB
15:00 3377m 16°C 16_8 0cm 74% 8mph 12mph 1013mB
18:00 3521m 16°C 16_7 0cm 70% 7mph 12mph 1014mB
21:00 3421m 7°C 7_7 0cm 100% 7mph 13mph 1015mB
0:00 3293m 7°C 7_7 0cm 100% 7mph 14mph 1014mB
3:00 3021m 6°C 6_7 0cm 100% 7mph 12mph 1014mB
6:00 2756m 5°C 5_5 0cm 94% 5mph 8mph 1013mB
9:00 2747m 8°C 8_1 0cm 92% 1mph 2mph 1014mB
12:00 2565m 14°C 14_7 0cm 95% 7mph 11mph 1015mB
15:00 1578m 6°C 6_5 14cm 100% 5mph 10mph 1018mB
18:00 1486m 6°C 6_2 10cm 100% 2mph 4mph 1021mB
21:00 1496m -1°C -1_2 3cm 100% 2mph 4mph 1023mB
0:00 1420m -1°C -1_3 3cm 100% 3mph 5mph 1024mB
3:00 1373m -2°C -2_3 3cm 100% 3mph 6mph 1025mB
6:00 1399m -2°C -2_3 3cm 100% 3mph 4mph 1026mB
9:00 1585m -2°C -2_2 2cm 100% 2mph 3mph 1025mB
12:00 1822m 3°C 3_2 1cm 99% 2mph 4mph 1024mB
15:00 1979m 3°C 3_2 0cm 98% 2mph 2mph 1023mB
18:00 2066m 4°C 4_3 0cm 98% 3mph 4mph 1025mB
21:00 2083m 1°C 1_4 0cm 100% 4mph 5mph 1027mB
0:00 2198m 1°C 1_4 0cm 99% 4mph 6mph 1027mB
3:00 2427m 1°C 1_5 0cm 99% 5mph 6mph 1026mB
6:00 2460m 1°C 1_4 0cm 100% 4mph 6mph 1024mB
9:00 2524m 2°C 2_0 0cm 100% 0mph 1mph 1023mB
12:00 2594m 8°C 8_2 0cm 100% 2mph 2mph 1022mB
15:00 2759m 10°C 10_3 0cm 99% 3mph 4mph 1020mB
18:00 2780m 10°C 10_1 0cm 98% 1mph 1mph 1021mB
21:00 2776m 4°C 4_3 0cm 98% 3mph 4mph 1022mB
0:00 2855m 2°C 2_4 0cm 99% 4mph 5mph 1021mB
3:00 2871m 2°C 2_4 0cm 98% 4mph 5mph 1019mB
6:00 2864m 2°C 2_3 0cm 98% 3mph 3mph 1016mB
9:00 2760m 5°C 5_1 0cm 100% 1mph 1mph 1013mB
12:00 2933m 13°C 13_1 0cm 100% 1mph 1mph 1009mB
15:00 2686m 21°C 21_7 0cm 100% 7mph 19mph 1006mB
18:00 2532m 21°C 21_8 0cm 96% 8mph 22mph 1007mB
21:00 2398m 10°C 10_6 0cm 100% 6mph 26mph 1007mB
0:00 2021m 10°C 10_7 0cm 100% 7mph 24mph 1007mB
3:00 1560m 8°C 8_6 0cm 100% 6mph 22mph 1007mB
6:00 1343m 7°C 7_8 0cm 100% 8mph 24mph 1007mB
9:00 1374m 7°C 7_13 0cm 100% 13mph 25mph 1008mB
12:00 1555m 9°C 9_11 0cm 100% 11mph 21mph 1008mB
15:00 1601m 10°C 10_14 0cm 94% 14mph 29mph 1009mB
18:00 1474m 10°C 10_12 0cm 57% 12mph 27mph 1010mB
21:00 1449m 5°C 5_8 0cm 6% 8mph 29mph 1013mB
0:00 1396m 4°C 4_8 0cm 6% 8mph 25mph 1014mB
3:00 1322m 3°C 3_7 0cm 1% 7mph 16mph 1014mB
6:00 1267m 3°C 3_8 0cm 1% 8mph 17mph 1014mB
9:00 1388m 6°C 6_11 0cm 8% 11mph 16mph 1014mB
12:00 1586m 12°C 12_9 0cm 10% 9mph 13mph 1012mB
15:00 1610m 12°C 12_7 0cm 45% 7mph 10mph 1011mB
18:00 1633m 12°C 12_2 0cm 23% 2mph 3mph 1012mB
21:00 1597m 4°C 4_5 0cm 3% 5mph 7mph 1015mB
0:00 1564m 3°C 3_5 0cm 2% 5mph 7mph 1014mB
Afternoon 0mm 0 1856m 15°C 15_4 0cm 43% 4mph 5mph 1009mB
Morning 0.03125mm 0.375 1985m 3°C 3_3 0cm 39% 3mph 4mph 1014mB
Afternoon 0mm 0 2309m 19°C 19_5 0cm 12% 5mph 8mph 1008mB
Morning 0mm 0 2780m 7°C 7_6 0cm 36% 6mph 11mph 1009mB
Afternoon 0mm 0 3040m 22°C 22_5 0cm 56% 5mph 9mph 1003mB
Morning 0mm 0 3226m 11°C 11_5 0cm 80% 5mph 5mph 1003mB
Afternoon 0mm 0 3382m 26°C 26_3 0cm 3% 3mph 9mph 999mB
Morning 0mm 0 2943m 13°C 13_4 0cm 53% 4mph 9mph 994mB
Afternoon 0.75mm 3.4375 2128m 13°C 13_6 0cm 100% 6mph 15mph 1000mB
Morning 0.192708mm 1.0625 1496m 7°C 7_14 0cm 100% 14mph 34mph 1008mB
Afternoon 0.0104167mm 0.125 1401m 10°C 10_11 0cm 97% 11mph 17mph 1014mB
Morning 0.078125mm 0.0625 1283m 3°C 3_5 0cm 84% 5mph 11mph 1021mB

16 day outlook at a glance

Forecast issued: 22/04/2019 09:01:39

Chat

Your comments and questions. In a resort? Let us know what it's like!


Characters left 250

For terms and conditions see Readers Comments on the Cookie and privacy policy page.